AirNav   Get $300 off a Bose A20
 
 288 users online  

1DA
(formerly ID42)
Big Bar Airport
Lucile, Idaho, USA

GOING TO LUCILE?


FAA INFORMATION EFFECTIVE 25 APRIL 2019

Location

FAA Identifier: 1DA
Lat/Long: 45-32-04.4800N / 116-31-51.3000W
45-32.074667N / 116-31.855000W
45.5345778 / -116.5309167
(estimated)
Elevation: 1236 ft. / 377 m (estimated)
From city: 9 miles W of LUCILE, ID
Time zone: UTC +0 (year round; does not observe DST)
Zip code: 83542

Airport Operations

Airport use: Open to the public
Activation date: 12/2016
Control tower: no
ARTCC: SEATTLE CENTER
FSS: BOISE FLIGHT SERVICE STATION
Attendance: 
Wind indicator: yes
Segmented circle: no

Airport Communications

CTAF: 122.9

Airport Services

Runway Information

Runway 17/35

Dimensions: 1203 x 30 ft. / 367 x 9 m
Surface: turf/dirt
RUNWAY 17  RUNWAY 35
Traffic pattern: leftleft

Airport Ownership and Management from official FAA records

Ownership: Privately-owned
Owner: USDA - FOREST SERVICE
WALLOWA-WHITMAN NATIONAL FOREST
LAGRANDE, OR 97850
Phone 541-975-5418
Manager: MILES HANCOCK
59973 DOWNS ROAD
LAGRANDE, OR 97850
Phone 541-975-5418

Instrument Procedures

There are no published instrument procedures at 1DA.

Some nearby airports with instrument procedures:

KGIC - Idaho County Airport (30 nm NE)
KMYL - Mc Call Municipal Airport (43 nm SE)
KLWS - Lewiston-Nez Perce County Airport (54 nm N)
KLGD - La Grande/Union County Airport (64 nm W)
KBKE - Baker City Municipal Airport (68 nm SW)
 
Loc | Ops | Rwys | IFR | FBO | Links
Com | Nav | Svcs | Stats | Notes
Aerial photo
No photo
 
Airport distance calculator
Flying to Big Bar Airport? Find the distance to fly.

From to 1DA

Sunrise and sunset
Times for 18-May-2019
 Zulu (UTC)
Morning civil twilight11:38
Sunrise12:13
Sunset03:12
Evening civil twilight03:47

Current date and time
Zulu (UTC)  19-May-2019 06:44:44
 
METAR
KGIC 
30nm NE 
190635Z AUTO 00000KT 10SM OVC120 09/06 A2975 RMK AO1
KMYL 
43nm SE 
190551Z AUTO 00000KT 10SM BKN100 07/03 A2976 RMK AO2 SLP069 T00670028 10128 20067 58002
TAF
KMYL 
43nm SE 
190520Z 1906/2006 VRB03KT P6SM BKN100 FM191200 VRB05KT P6SM VCSH OVC050 FM191700 VRB05KT P6SM -SHRA OVC025 FM192100 31007KT 5SM -RA BR OVC015 FM200100 35010KT 3SM -RA BR OVC005
NOTAMs
Click for the latest NOTAMs
NOTAMs are issued by the DoD/FAA and will open in a separate window not controlled by AirNav.

 

 
 

Would you like to see your business listed on this page?

 If your business provides an interesting product or service to pilots, flight crews, aircraft, or users of the Big Bar Airport, you should consider listing it here.  To start the listing process, click on the button below
 
Add a business
 

Other Pages about Big Bar Airport

Update a link
 
Copyright © AirNav, LLC. All rights reserved. Privacy Policy  Contact